Weather History for Okeechobee, FL

Change the Weather History Date:

Monday, November 5, 2012

  Actual Average Record
Temperature  
Mean Temperature 67 °F -  
Max Temperature 75 °F 81 °F 91 °F (1982)
Min Temperature 59 °F 59 °F 43 °F (1970)
Cooling Degree Days 2    
Growing Degree Days 17 (Base 50)    
Moisture  
Dew Point 61 °F    
Average Humidity 85    
Maximum Humidity 100    
Minimum Humidity 57    
Precipitation  
Precipitation 0.00 in - - ()
Sea Level Pressure  
Sea Level Pressure 29.99 in    
Wind  
Wind Speed 1 mph (WSW)    
Max Wind Speed 8 mph    
Max Gust Speed -    
Visibility 9 miles    
Events      
Averages and records for this station are not official NWS values.
T = Trace of Precipitation, MM = Missing Value Source: NWS Daily Summary

Daily Weather History Graph

Daily Weather History Graph

Search for Another Location

Airport:

Trip Planner

Search our weather history database for the weather conditions in past years. The results will help you decide how hot, cold, wet, or windy it might be!

Date:

Astronomy

Nov. 05, 2012 Rise Set
Actual Time 6:36 AM EST 5:36 PM EST
Civil Twilight 6:12 AM EST 6:01 PM EST
Nautical Twilight 5:44 AM EST 6:28 PM EST
Astronomical Twilight 5:17 AM EST 6:56 PM EST
Moon 11:12 PM EST (11/5) 11:54 AM EST (11/5)
Length of Visible Light 11h 48m
Length of Day
11h 00m
Waning Gibbous, 63% of the Moon is Illuminated
Nov 5
Waning Gibbous
Nov 6
Last Quarter
Nov 13
New
Nov 20
First Quarter
Nov 28
Full

Hourly Weather History & Observations

Time (EST) Temp. Dew Point Humidity Pressure Visibility Wind Dir Wind Speed Gust Speed Precip Events Conditions
12:15 AM 64.4 °F 60.8 °F 88% 30.03 in 10.0 mi Calm Calm - N/A   Clear
12:35 AM 64.4 °F 60.8 °F 88% 30.03 in 10.0 mi Calm Calm - N/A   Clear
12:55 AM 62.6 °F 60.8 °F 94% 30.01 in 10.0 mi Calm Calm - N/A   Clear
1:15 AM 62.6 °F 60.8 °F 94% 30.01 in 10.0 mi Calm Calm - N/A   Clear
1:35 AM 62.6 °F 59.0 °F 88% 30.02 in 10.0 mi Calm Calm - N/A   Clear
1:55 AM 60.8 °F 59.0 °F 94% 30.02 in 10.0 mi Calm Calm - N/A   Clear
2:15 AM 62.6 °F 57.2 °F 82% 30.01 in 10.0 mi Calm Calm - N/A   Clear
2:35 AM 60.8 °F 57.2 °F 88% 30.01 in 10.0 mi Calm Calm - N/A   Clear
2:55 AM 60.8 °F 57.2 °F 88% 30.01 in 10.0 mi West 3.5 mph - N/A   Clear
3:15 AM 60.8 °F 57.2 °F 88% 30.00 in 10.0 mi Calm Calm - N/A   Clear
3:35 AM 60.8 °F 57.2 °F 88% 30.00 in 10.0 mi Calm Calm - N/A   Clear
3:55 AM 60.8 °F 57.2 °F 88% 29.99 in 10.0 mi Calm Calm - N/A   Clear
4:15 AM 60.8 °F 59.0 °F 94% 30.00 in 10.0 mi WSW 3.5 mph - N/A   Clear
4:35 AM 59.0 °F 57.2 °F 94% 30.00 in 10.0 mi Calm Calm - N/A   Clear
4:55 AM 59.0 °F 59.0 °F 100% 30.00 in 10.0 mi Calm Calm - N/A   Clear
5:15 AM 60.8 °F 59.0 °F 94% 30.01 in 10.0 mi WNW 3.5 mph - N/A   Clear
5:35 AM 60.8 °F 59.0 °F 94% 30.00 in 10.0 mi Calm Calm - N/A   Clear
5:55 AM 60.8 °F 59.0 °F 94% 30.01 in 10.0 mi Calm Calm - N/A   Clear
6:15 AM 59.0 °F 59.0 °F 100% 30.01 in 7.0 mi Calm Calm - N/A   Clear
6:35 AM 59.0 °F 59.0 °F 100% 30.02 in 7.0 mi SW 3.5 mph - N/A   Clear
6:55 AM 59.0 °F 59.0 °F 100% 30.01 in 7.0 mi Calm Calm - N/A   Clear
7:15 AM 59.0 °F 59.0 °F 100% 30.02 in 5.0 mi Calm Calm - N/A   Clear
7:35 AM 60.8 °F 59.0 °F 94% 30.03 in 5.0 mi Calm Calm - N/A   Clear
7:55 AM 60.8 °F 59.0 °F 94% 30.02 in 5.0 mi Calm Calm - N/A   Clear
8:15 AM 60.8 °F 60.8 °F 100% 30.03 in 5.0 mi Calm Calm - N/A   Clear
8:35 AM 62.6 °F 60.8 °F 94% 30.04 in 5.0 mi Calm Calm - N/A   Clear
8:55 AM 62.6 °F 60.8 °F 94% 30.04 in 5.0 mi Calm Calm - N/A   Clear
9:15 AM 64.4 °F 62.6 °F 94% 30.03 in 5.0 mi Calm Calm - N/A   Clear
9:35 AM 66.2 °F 62.6 °F 88% 30.03 in 5.0 mi Calm Calm - N/A   Clear
9:55 AM 68.0 °F 64.4 °F 88% 30.02 in 5.0 mi Calm Calm - N/A   Clear
10:15 AM 68.0 °F 64.4 °F 88% 30.03 in 7.0 mi Calm Calm - N/A   Clear
10:35 AM 69.8 °F 64.4 °F 83% 30.02 in 10.0 mi West 3.5 mph - N/A   Clear
10:55 AM 69.8 °F 64.4 °F 83% 30.02 in 10.0 mi West 3.5 mph - N/A   Clear
11:15 AM 71.6 °F 64.4 °F 78% 30.02 in 10.0 mi West 5.8 mph - N/A   Clear
11:35 AM 71.6 °F 64.4 °F 78% 30.01 in 10.0 mi NW 6.9 mph - N/A   Scattered Clouds
11:55 AM 73.4 °F 64.4 °F 73% 30.00 in 10.0 mi WNW 8.1 mph - N/A   Scattered Clouds
12:15 PM 73.4 °F 64.4 °F 73% 30.00 in 10.0 mi West 4.6 mph - N/A   Scattered Clouds
12:35 PM 73.4 °F 62.6 °F 69% 29.99 in 10.0 mi West 5.8 mph - N/A   Scattered Clouds
1:15 PM 73.4 °F 60.8 °F 65% 29.97 in 10.0 mi Calm Calm - N/A   Scattered Clouds
1:35 PM 75.2 °F 60.8 °F 61% 29.96 in 10.0 mi West 3.5 mph - N/A   Scattered Clouds
1:55 PM 75.2 °F 60.8 °F 61% 29.95 in 10.0 mi West 5.8 mph - N/A   Clear
2:15 PM 75.2 °F 60.8 °F 61% 29.95 in 10.0 mi WNW 4.6 mph - N/A   Scattered Clouds
2:35 PM 75.2 °F 59.0 °F 57% 29.95 in 10.0 mi West 5.8 mph - N/A   Scattered Clouds
2:55 PM 75.2 °F 60.8 °F 61% 29.95 in 10.0 mi West 4.6 mph - N/A   Scattered Clouds
3:15 PM 75.2 °F 60.8 °F 61% 29.95 in 10.0 mi West 4.6 mph - N/A   Clear
3:35 PM 73.4 °F 59.0 °F 61% 29.95 in 10.0 mi Calm Calm - N/A   Clear
3:55 PM 73.4 °F 60.8 °F 65% 29.94 in 10.0 mi West 3.5 mph - N/A   Clear
4:15 PM 73.4 °F 60.8 °F 65% 29.94 in 10.0 mi Calm Calm - N/A   Clear
4:35 PM 73.4 °F 62.6 °F 69% 29.94 in 10.0 mi Calm Calm - N/A   Clear
4:55 PM 71.6 °F 64.4 °F 78% 29.94 in 10.0 mi SSE 3.5 mph - N/A   Clear
5:15 PM 71.6 °F 64.4 °F 78% 29.95 in 10.0 mi Calm Calm - N/A   Clear
5:35 PM 69.8 °F 64.4 °F 83% 29.95 in 10.0 mi South 4.6 mph - N/A   Clear
5:55 PM 69.8 °F 64.4 °F 83% 29.95 in 10.0 mi South 3.5 mph - N/A   Clear
6:15 PM 68.0 °F 64.4 °F 88% 29.96 in 10.0 mi Calm Calm - N/A   Clear
6:35 PM 69.8 °F 64.4 °F 83% 29.96 in 10.0 mi Calm Calm - N/A   Clear
6:55 PM 68.0 °F 64.4 °F 88% 29.97 in 10.0 mi Calm Calm - N/A   Clear
7:15 PM 68.0 °F 64.4 °F 88% 29.97 in 10.0 mi Calm Calm - N/A   Clear
7:35 PM 68.0 °F 64.4 °F 88% 29.96 in 10.0 mi Calm Calm - N/A   Clear
7:55 PM 66.2 °F 64.4 °F 94% 29.97 in 10.0 mi Calm Calm - N/A   Clear
8:15 PM 66.2 °F 64.4 °F 94% 29.97 in 10.0 mi Calm Calm - N/A   Clear
8:35 PM 64.4 °F 62.6 °F 94% 29.98 in 10.0 mi WSW 3.5 mph - N/A   Clear
8:55 PM 64.4 °F 62.6 °F 94% 29.97 in 10.0 mi SW 3.5 mph - N/A   Clear
9:15 PM 66.2 °F 62.6 °F 88% 29.97 in 10.0 mi SW 3.5 mph - N/A   Clear
9:35 PM 66.2 °F 62.6 °F 88% 29.98 in 10.0 mi SW 4.6 mph - N/A   Clear
10:15 PM 64.4 °F 62.6 °F 94% 29.98 in 10.0 mi SW 4.6 mph - N/A   Clear
10:35 PM 64.4 °F 62.6 °F 94% 29.97 in 10.0 mi Calm Calm - N/A   Clear
10:55 PM 64.4 °F 62.6 °F 94% 29.97 in 10.0 mi WSW 3.5 mph - N/A   Clear
11:15 PM 64.4 °F 62.6 °F 94% 29.96 in 10.0 mi Calm Calm - N/A   Clear
11:35 PM 64.4 °F 62.6 °F 94% 29.97 in 10.0 mi Calm Calm - N/A   Scattered Clouds
11:55 PM 64.4 °F 62.6 °F 94% 29.97 in 10.0 mi Calm Calm - N/A   Scattered Clouds